AO-07 1 7530U 74089B 24284.54933330 -.00000026 00000-0 12600-3 0 9994 2 7530 101.9878 280.3131 0011925 223.3328 253.5470 12.53680615283736 AO-27 1 22825U 93061C 24284.10419394 .00000721 00000-0 29355-3 0 9996 2 22825 98.7750 338.0097 0009493 101.9961 258.2286 14.30610424619317 FO-29 1 24278U 96046B 24283.79680212 .00000085 00000-0 12533-3 0 9992 2 24278 98.5813 203.4293 0348933 251.3643 104.9315 13.53215812389932 ISS 1 25544U 98067A 24284.58548122 .00037521 00000-0 67055-3 0 9999 2 25544 51.6398 103.8131 0008430 61.8768 54.0890 15.49615403476441 SO-50 1 27607U 02058C 24284.25411074 .00007660 00000-0 10218-2 0 9994 2 27607 64.5543 227.6469 0028258 50.2369 310.1218 14.79926036173551 AO-73 1 39444U 13066AE 24283.85369701 .00018731 00000-0 16686-2 0 9997 2 39444 97.7333 240.9488 0047911 117.2549 243.3564 14.95177130587223 XW-2C 1 40906U 15049H 24284.52118384 .00082753 00000-0 11958-2 0 9991 2 40906 97.4692 305.2078 0004478 216.6447 143.4501 15.55651367502319 XW-2D 1 40907U 15049J 24284.08128536 .00240829 00000-0 15477-2 0 9993 2 40907 97.4579 309.1919 0004461 183.8497 176.2734 15.75517767502604 LILACSAT-2 1 40908U 15049K 24284.12866260 .00025827 00000-0 88679-3 0 9996 2 40908 97.5245 293.9373 0009560 313.0117 47.0321 15.30074518501048 XW-2E 1 40909U 15049L 24087.81329062 .07113575 25348-5 12295-2 0 9990 2 40909 97.3887 118.6826 0008261 229.8424 130.2149 16.32913615473412 XW-2F 1 40910U 15049M 24092.20923921 .16747303 26701-5 28112-3 0 9997 2 40910 97.4046 122.6776 0010391 231.3491 128.6883 16.47481859473951 XW-2B 1 40911U 15049N 24284.45297368 .00208788 00000-0 14893-2 0 9998 2 40911 97.4562 309.4240 0004230 187.2570 172.8633 15.73174525502514 IO-86 1 40931U 15052B 24270.29994034 .00002074 00000-0 19195-3 0 9996 2 40931 5.9998 350.0993 0012711 76.7416 283.4129 14.78150863486449 FOX-1 1 40967U 15058D 24284.51041271 .00012311 00000-0 10831-2 0 9999 2 40967 64.7788 21.4783 0189687 269.3622 88.5749 14.83973873 22099 NUSAT 1 1 41557U 16033B 23294.57261523 .13570584 25586-5 20126-3 0 9994 2 41557 97.3596 50.5245 0012741 279.5777 80.4087 16.47966609413529 CAS-2T 1 41847U 16066G 24284.10811245 .00006867 00000-0 99757-3 0 9992 2 41847 98.4494 354.5493 0351376 190.9139 168.4285 14.42006887416054 EO-88 1 42017U 17008BX 23199.44167461 .08967960 24048-5 93873-3 0 9998 2 42017 97.1901 272.9585 0015059 261.6732 98.2859 16.37376287358454 CAS-4B 1 42759U 17034B 24284.44591211 .00040826 00000-0 11625-2 0 9996 2 42759 43.0156 292.2498 0011645 47.5267 312.6570 15.35368254405074 CAS-4A 1 42761U 17034D 24284.37113644 .00057592 00000-0 16237-2 0 9993 2 42761 43.0194 290.9194 0011611 58.5170 301.6818 15.35545977405077 AO-91 1 43017U 17073E 24284.11829117 .00025028 00000-0 14512-2 0 9995 2 43017 97.5549 155.6712 0197717 268.4308 89.4260 14.97093666372839 AO-92 1 43137U 18004AC 24033.82494968 .13075370 24468-5 25682-3 0 9994 2 43137 97.2729 126.2745 0011105 309.1902 50.8414 16.46500565338357 PICSAT 1 43132U 18004X 23274.90669177 .16535587 25409-5 24982-3 0 9992 2 43132 97.2902 3.7671 0010678 260.9850 99.0246 16.48076850319334 PO-101 1 43678U 18084H 24284.47603726 .00006620 00000-0 59142-3 0 9992 2 43678 98.0861 86.0089 0009198 19.1799 340.9766 14.96240088324158 QO-100 1 43700U 18090A 24283.83640764 .00000151 00000-0 00000-0 0 9996 2 43700 0.0167 177.7497 0001099 31.3686 136.7614 1.00271466 21501 JO-97 1 43803U 18099AX 24283.68524568 .00022744 00000-0 13507-2 0 9995 2 43803 97.5064 339.9930 0007517 267.0757 92.9612 15.11290451319967 FO-99 1 43937U 19003F 23313.54107761 .16492241 25339-5 26604-3 0 9999 2 43937 97.0315 342.1459 0005268 231.7168 128.3663 16.48231493268837 TO-108 1 44881U 19093C 24284.47349359 .00004256 00000-0 51178-3 0 9993 2 44881 97.8187 359.0212 0013025 308.9862 51.0192 14.84401052260146 RS-44 1 44909U 19096E 24284.03823121 .00000048 00000-0 14213-3 0 9997 2 44909 82.5260 28.4449 0218218 142.5087 219.1463 12.79734902223716 AO-109 1 47311U 21002C 24112.58294100 .09167436 99880-5 88771-3 0 9999 2 47311 60.6450 276.5573 0006279 285.8230 74.2218 16.37785734182462 UVSQ-SAT 1 47438U 21006AB 24283.65783478 .00626345 00000-0 23358-2 0 9991 2 47438 97.2978 347.6480 0004013 210.2326 149.8715 15.86469192206583 CSS 1 48274U 21035A 24284.48629587 .00034826 00000-0 35472-3 0 9992 2 48274 41.4659 99.8707 0003518 172.1330 187.9566 15.64395853197132 HO-113 1 50466U 21131B 24284.48385950 .00003179 00000-0 10214-2 0 9991 2 50466 98.5232 9.0150 0005031 134.1548 226.0054 14.40074220146590 Tevel-1 1 51013U 22002AF 24217.47990832 .17024539 25488-5 26344-3 0 9999 2 51013 97.3517 296.8662 0017808 259.4091 100.5207 16.47113739142696 Tevel-7 1 51062U 22002CG 24215.97230178 .05418465 24496-5 15072-2 0 9991 2 51062 97.3509 295.4378 0015078 264.3393 95.6180 16.27574534142457 Tevel-4 1 51063U 22002CH 24217.68533605 .05991808 24509-5 17243-2 0 9997 2 51063 97.3564 297.1077 0014984 266.4742 93.4837 16.27195964142710 Tevel-2 1 51069U 22002CP 24216.00863110 .06095772 24440-5 17929-2 0 9996 2 51069 97.3472 295.3558 0015472 266.0906 93.8617 16.26925185142466 HADES 1 51080U 22002DA 24138.97473861 .01172231 64229-3 32625-2 0 9996 2 51080 97.4039 222.9048 0007866 241.8685 118.1795 15.93809903130740 EASAT-2 1 51081U 22002DB 24142.74938777 .04626486 24555-5 17453-2 0 9990 2 51081 97.3942 227.5617 0013403 270.7229 89.2527 16.24102617131380 Tevel-3 1 50988U 22002E 24216.32026118 .06112943 24608-5 13272-2 0 9992 2 50988 97.3448 295.7406 0014751 266.8727 93.0880 16.30291923142513 Tevel-8 1 50989U 22002F 24216.68655818 .06045991 24594-5 14411-2 0 9995 2 50989 97.3519 296.2280 0015989 264.8635 95.0834 16.29228967142561 Tevel-5 1 50998U 22002Q 24200.23570604 .08580035 24925-5 11837-2 0 9990 2 50998 97.3564 280.3105 0016090 265.0303 94.9157 16.34769010140097 Tevel-6 1 50999U 22002R 24201.25211657 .14390351 25345-5 39579-3 0 9992 2 50999 97.3365 281.3486 0014741 257.2789 102.6865 16.44208008140259 TO-108 1 54684U 22167C 24284.50389920 .00081496 00000-0 18276-2 0 9995 2 54684 97.6159 73.0461 0006461 98.7090 261.4889 15.43089570101997 INSPIRE-SAT 7 1 56211U 23054AK 24262.29064463 .11675157 26116-5 88932-3 0 9996 2 56211 97.3163 168.3145 0008158 207.0865 153.0010 16.40455525 80975 SO-121 1 58567U 23174CY 24283.96914257 .00409038 00000-0 44644-2 0 9998 2 58567 97.4346 1.8013 0008114 211.9483 148.1284 15.62007421 51452 MO-122 1 60209U 24125G 24284.11805417 .00030617 00000-0 12826-2 0 9996 2 60209 97.3085 134.1829 0022892 282.4475 77.4200 15.23235813 14888 YUZGU 8 1 53306U 98067TR 23025.79167360 .07011754 12129-4 11372-2 0 9998 2 53306 51.6063 292.9414 0006142 218.6650 243.8329 16.32721285 29461 YUZGU 12 1 53308U 98067TT 23029.07738038 .12328418 12448-4 55907-3 0 9992 2 53308 51.6129 276.0899 0007051 254.5007 105.5243 16.42903695 30044 YUZGU 5 1 53309U 98067TU 23026.78154543 .07817383 12266-4 25237-2 0 9999 2 53309 51.5369 287.2498 0215129 186.3126 284.9191 16.41937082 29633 YUZGU 9 1 53310U 98067TV 23027.95360578 .07311626 12146-4 11649-2 0 9996 2 53310 51.6161 282.1016 0006762 235.3476 124.6910 16.32881878 29843 TSIOLKOVSKY-RYAZAN 1 1 53311U 98067TW 23023.95662205 .10980964 12291-4 94749-3 0 9990 2 53311 51.6134 301.8850 0005230 218.9303 141.1347 16.38525487 29243 YUZGU 6 1 53312U 98067TX 23027.23010772 .07984851 12172-4 10935-2 0 9999 2 53312 51.6130 285.5123 0006786 228.9660 131.0778 16.34340713 29693 YUZGU 7 1 53313U 98067TY 23026.97308621 .06899054 12108-4 12066-2 0 9998 2 53313 51.6139 286.8007 0007093 224.6880 135.3572 16.31947587 29707 NO-44 1 26931U 01043C 24284.57243748 .00001395 00000-0 55618-3 0 9995 2 26931 67.0528 33.4230 0007628 265.2863 94.7367 14.31427087202626 NO-103 1 44355U 19036S 22110.24609159 .09797144 -77191-5 93620-3 0 9997 2 44355 28.5075 82.7172 0016307 255.7935 104.0877 16.36779689157079 LEDSAT 1 49069U 21073D 24284.46226951 .00066253 00000-0 21215-2 0 9991 2 49069 97.4248 355.2426 0016095 232.3721 127.6060 15.32016410174054 IO-117 1 53106U 22080B 24281.96479996 -.00000003 00000-0 00000-0 0 9997 2 53106 70.1376 153.3488 0008243 81.8360 278.3235 6.42557544 52511 EOS-7 1 55562U 23019A 24284.13582515 .00190143 00000-0 18334-2 0 9997 2 55562 37.1757 217.0587 0005747 247.4745 112.5414 15.64958684 94198 SONATE-2 1 59112U 24043Q 24284.07359775 .00029743 00000-0 12526-2 0 9997 2 59112 97.4907 47.0714 0013096 251.4048 108.5766 15.23228754 33268